Date,TemperatureHighF,TemperatureAvgF,TemperatureLowF,DewpointHighF,DewpointAvgF,DewpointLowF,HumidityHigh,HumidityAvg,HumidityLow,PressureMaxIn,PressureMinIn,WindSpeedMaxMPH,WindSpeedAvgMPH,GustSpeedMaxMPH,PrecipitationSumIn
2013-3-1,44.4,30.3,25.5,24.8,19.2,16.7,73,64,42,29.42,29.36,17,3,17,0.00
2013-3-2,39.0,28.1,20.1,21.7,16.7,6.8,73,63,40,29.44,29.36,18,3,18,0.01
2013-3-3,43.3,23.9,16.0,10.9,5.4,-1.1,64,47,21,29.49,29.40,16,4,17,0.00
2013-3-4,57.9,33.3,16.0,25.2,11.7,-11.2,77,45,17,29.60,29.48,18,3,18,0.00
2013-3-5,50.0,40.3,27.0,46.9,35.7,19.8,97,84,59,29.58,29.23,36,4,36,0.72
2013-3-6,30.2,23.7,18.9,21.2,17.0,13.5,83,76,62,29.61,29.26,0,0,0,0.01
2013-3-7,67.3,32.9,14.4,29.1,17.7,8.4,83,61,15,29.73,29.58,16,1,16,0.05
2013-3-8,68.9,37.5,19.4,68.9,20.3,5.7,90,54,10,29.79,29.71,9,1,12,0.00
2013-3-9,75.2,43.2,21.7,74.7,26.8,8.2,87,51,10,29.80,29.72,15,2,15,0.00
2013-3-10,70.2,47.9,30.0,37.2,26.2,9.7,85,51,10,29.76,29.67,9,3,13,0.00
2013-3-11,51.1,47.8,45.9,49.6,45.9,37.4,99,93,67,29.68,29.38,23,5,23,1.04
2013-3-12,62.8,45.5,29.3,49.8,28.5,4.5,99,63,13,29.58,29.36,17,4,20,0.06
2013-3-13,46.9,34.6,23.2,26.1,15.8,5.0,84,49,21,29.66,29.55,23,6,26,0.00
2013-3-14,53.2,32.0,15.3,14.2,5.4,-7.4,75,39,14,29.73,29.64,24,4,24,0.00
2013-3-15,68.7,46.7,26.4,39.9,28.5,8.2,88,53,22,29.70,29.54,31,6,31,0.00
2013-3-16,75.2,58.4,50.2,43.5,39.7,37.0,61,51,30,29.55,29.44,29,8,31,0.00
2013-3-17,72.9,56.2,46.0,45.7,41.1,37.0,84,59,29,29.57,29.49,16,4,20,0.00
2013-3-18,53.1,47.9,41.4,48.9,45.3,41.2,99,91,75,29.56,29.40,21,3,21,0.72
2013-3-19,61.9,44.2,27.7,44.2,23.2,4.3,99,56,12,29.62,29.43,20,4,23,0.01
2013-3-20,57.9,36.4,22.5,26.8,13.0,-5.1,85,48,13,29.61,29.39,22,4,22,0.00
2013-3-21,45.5,27.9,16.7,21.9,1.2,-15.2,77,35,15,29.42,29.31,22,5,22,0.00
2013-3-22,45.3,31.1,16.2,28.0,16.3,-1.3,74,56,21,29.53,29.42,12,2,12,0.00
2013-3-23,63.0,44.1,34.9,46.9,39.0,27.1,99,83,55,29.53,29.36,8,1,8,0.17
2013-3-24,55.4,44.8,34.0,48.0,41.8,27.3,99,89,69,29.44,29.06,23,4,23,1.09
2013-3-25,33.6,26.0,21.7,27.5,19.2,15.4,83,75,62,29.43,29.13,21,0,22,0.00
2013-3-26,34.9,26.3,21.7,19.2,16.1,13.6,81,66,48,29.67,29.40,13,2,16,0.01
2013-3-27,53.6,32.3,17.4,17.8,11.4,2.5,77,47,15,29.73,29.64,19,4,19,0.00
2013-3-28,57.6,35.3,20.3,18.1,12.5,3.7,82,47,13,29.80,29.70,21,4,23,0.00
2013-3-29,50.9,32.5,19.0,34.0,23.6,12.7,87,72,26,29.83,29.74,11,1,11,0.02
2013-3-30,67.3,47.6,35.2,45.5,34.3,21.2,97,67,20,29.74,29.59,16,2,16,0.27
2013-3-31,55.9,50.3,45.7,49.5,47.3,44.8,99,90,71,29.60,29.44,25,6,25,1.09